When you browse on this site, cookies collect data to enhance your experience and personalize the content and advertising you see.
Visit our Privacy Policy to learn more. By continuing to use the site, you agree to this use of cookies and data.

Hourly Weather Bali

Today, 15 August, Saturday

Time Temperature Precipitation Wind Pressure Humidity
00:00 +25°C° 0.1 mm 3 mps 748 mmHg 95%
01:00 +25°C° 0.1 mm 3 mps 748 mmHg 95%
02:00 +25°C° 0 mm 3 mps 748 mmHg 95%
03:00 +25°C° 0.1 mm 3 mps 748 mmHg 95%
04:00 +25°C° 0.1 mm 3 mps 748 mmHg 95%
05:00 +25°C° 0.1 mm 3 mps 747 mmHg 95%
06:00 +26°C° 0 mm 3 mps 748 mmHg 93%
07:00 +26°C° 0 mm 3 mps 748 mmHg 91%
08:00 +27°C° 0 mm 3 mps 748 mmHg 89%
09:00 +29°C° 0 mm 3 mps 748 mmHg 80%
10:00 +30°C° 0 mm 4 mps 749 mmHg 72%
11:00 +33°C° 0 mm 4 mps 749 mmHg 64%
12:00 +32°C° 0.2 mm 4 mps 748 mmHg 68%
13:00 +32°C° 0.2 mm 4 mps 748 mmHg 71%
14:00 +32°C° 0.2 mm 4 mps 747 mmHg 75%
15:00 +30°C° 0.2 mm 4 mps 747 mmHg 78%
16:00 +29°C° 0.2 mm 4 mps 747 mmHg 81%
17:00 +29°C° 0.2 mm 4 mps 746 mmHg 84%
18:00 +28°C° 0 mm 3 mps 747 mmHg 87%
19:00 +27°C° 0 mm 3 mps 747 mmHg 91%
20:00 +27°C° 0 mm 3 mps 748 mmHg 94%
21:00 +27°C° 0.1 mm 3 mps 748 mmHg 94%
22:00 +27°C° 0.1 mm 3 mps 748 mmHg 95%
23:00 +26°C° 0.1 mm 3 mps 748 mmHg 95%

Tomorrow, 16 August, Sunday

Time Temperature Precipitation Wind Pressure Humidity
00:00 +26°C° 0 mm 3 mps 748 mmHg 95%
01:00 +26°C° 0 mm 3 mps 748 mmHg 95%
02:00 +26°C° 0 mm 3 mps 748 mmHg 95%
03:00 +26°C° 0.1 mm 3 mps 748 mmHg 95%
04:00 +25°C° 0.1 mm 3 mps 748 mmHg 96%
05:00 +25°C° 0.1 mm 3 mps 748 mmHg 96%
06:00 +26°C° 0.1 mm 3 mps 748 mmHg 94%
07:00 +26°C° 0.1 mm 3 mps 748 mmHg 93%
08:00 +27°C° 0.1 mm 3 mps 749 mmHg 92%
09:00 +27°C° 0.2 mm 3 mps 749 mmHg 88%
10:00 +28°C° 0.2 mm 3 mps 749 mmHg 85%
11:00 +29°C° 0.2 mm 3 mps 749 mmHg 81%
12:00 +30°C° 0.1 mm 4 mps 748 mmHg 77%
13:00 +30°C° 0.1 mm 4 mps 747 mmHg 74%
14:00 +32°C° 0.1 mm 4 mps 747 mmHg 71%
15:00 +30°C° 0.1 mm 4 mps 747 mmHg 74%
16:00 +29°C° 0.1 mm 4 mps 746 mmHg 77%
17:00 +28°C° 0.1 mm 4 mps 746 mmHg 81%
18:00 +27°C° 0 mm 4 mps 747 mmHg 84%
19:00 +27°C° 0 mm 4 mps 747 mmHg 88%
20:00 +26°C° 0 mm 3 mps 748 mmHg 92%
21:00 +26°C° 0 mm 3 mps 748 mmHg 93%
22:00 +25°C° 0 mm 3 mps 749 mmHg 93%
23:00 +25°C° 0 mm 3 mps 749 mmHg 94%

Day after tomorrow, 17 August, Monday

Time Temperature Precipitation Wind Pressure Humidity
00:00 +25°C° 0.1 mm 3 mps 749 mmHg 94%
01:00 +25°C° 0.1 mm 3 mps 749 mmHg 95%
02:00 +25°C° 0.1 mm 3 mps 748 mmHg 95%
03:00 +25°C° 0 mm 3 mps 748 mmHg 95%
04:00 +25°C° 0 mm 3 mps 748 mmHg 95%
05:00 +25°C° 0 mm 3 mps 748 mmHg 95%
06:00 +25°C° 0.1 mm 3 mps 748 mmHg 93%
07:00 +26°C° 0.1 mm 3 mps 748 mmHg 91%
08:00 +26°C° 0.1 mm 3 mps 749 mmHg 89%
09:00 +28°C° 0.1 mm 3 mps 749 mmHg 80%
10:00 +29°C° 0.1 mm 4 mps 749 mmHg 71%
11:00 +32°C° 0.1 mm 4 mps 749 mmHg 62%
12:00 +32°C° 0 mm 4 mps 748 mmHg 63%
13:00 +32°C° 0 mm 5 mps 748 mmHg 63%
14:00 +32°C° 0 mm 5 mps 747 mmHg 64%
15:00 +30°C° 0 mm 5 mps 747 mmHg 69%
16:00 +29°C° 0 mm 5 mps 747 mmHg 74%
17:00 +28°C° 0 mm 5 mps 746 mmHg 80%
18:00 +27°C° 0.1 mm 4 mps 747 mmHg 84%
19:00 +26°C° 0.1 mm 4 mps 747 mmHg 88%
20:00 +26°C° 0.1 mm 4 mps 747 mmHg 92%
21:00 +26°C° 0.2 mm 4 mps 748 mmHg 93%
22:00 +25°C° 0.2 mm 4 mps 748 mmHg 93%
23:00 +25°C° 0.2 mm 4 mps 749 mmHg 94%

18 August, Tuesday

Time Temperature Precipitation Wind Pressure Humidity
00:00 +25°C° 0.1 mm 4 mps 748 mmHg 94%
01:00 +25°C° 0.1 mm 4 mps 748 mmHg 94%
02:00 +25°C° 0.1 mm 4 mps 748 mmHg 94%
03:00 +25°C° 0.1 mm 4 mps 747 mmHg 94%
04:00 +25°C° 0.1 mm 4 mps 747 mmHg 94%
05:00 +25°C° 0.1 mm 4 mps 747 mmHg 94%
06:00 +25°C° 0.2 mm 3 mps 748 mmHg 92%
07:00 +26°C° 0.2 mm 3 mps 748 mmHg 90%
08:00 +27°C° 0.2 mm 3 mps 749 mmHg 88%
09:00 +28°C° 0.4 mm 4 mps 749 mmHg 84%
10:00 +29°C° 0.4 mm 4 mps 749 mmHg 80%
11:00 +30°C° 0.4 mm 4 mps 749 mmHg 76%
12:00 +29°C° 0.2 mm 4 mps 748 mmHg 76%
13:00 +29°C° 0.2 mm 4 mps 748 mmHg 75%
14:00 +29°C° 0.2 mm 5 mps 747 mmHg 74%
15:00 +29°C° 0.1 mm 5 mps 747 mmHg 78%
16:00 +28°C° 0.1 mm 5 mps 746 mmHg 81%
17:00 +27°C° 0.1 mm 5 mps 746 mmHg 84%
18:00 +27°C° 0.1 mm 5 mps 747 mmHg 87%
19:00 +26°C° 0.1 mm 5 mps 747 mmHg 89%
20:00 +26°C° 0.1 mm 4 mps 748 mmHg 92%
21:00 +25°C° 0.2 mm 4 mps 748 mmHg 92%
22:00 +25°C° 0.2 mm 4 mps 748 mmHg 93%
23:00 +25°C° 0.2 mm 4 mps 748 mmHg 94%

19 August, Wednesday

Time Temperature Precipitation Wind Pressure Humidity
00:00 +25°C° 0.2 mm 4 mps 748 mmHg 94%
01:00 +25°C° 0.2 mm 4 mps 748 mmHg 94%
02:00 +25°C° 0.2 mm 4 mps 747 mmHg 94%
03:00 +25°C° 0.2 mm 4 mps 747 mmHg 94%
04:00 +25°C° 0.2 mm 4 mps 747 mmHg 95%
05:00 +24°C° 0.2 mm 3 mps 747 mmHg 95%
06:00 +25°C° 0.2 mm 3 mps 748 mmHg 93%
07:00 +25°C° 0.2 mm 4 mps 748 mmHg 91%
08:00 +26°C° 0.2 mm 4 mps 748 mmHg 89%
09:00 +28°C° 0.1 mm 4 mps 748 mmHg 81%
10:00 +29°C° 0.1 mm 4 mps 748 mmHg 74%
11:00 +32°C° 0.1 mm 4 mps 748 mmHg 67%
12:00 +32°C° 0 mm 5 mps 748 mmHg 66%
13:00 +32°C° 0 mm 5 mps 747 mmHg 65%
14:00 +32°C° 0 mm 5 mps 746 mmHg 64%
15:00 +30°C° 0.1 mm 5 mps 746 mmHg 70%
16:00 +29°C° 0.1 mm 5 mps 746 mmHg 75%
17:00 +28°C° 0.1 mm 4 mps 745 mmHg 81%
18:00 +27°C° 0.1 mm 4 mps 746 mmHg 85%
19:00 +26°C° 0.1 mm 4 mps 746 mmHg 89%
20:00 +25°C° 0.1 mm 3 mps 747 mmHg 93%
21:00 +25°C° 0.1 mm 3 mps 747 mmHg 93%
22:00 +25°C° 0.1 mm 3 mps 748 mmHg 93%
23:00 +25°C° 0.1 mm 3 mps 748 mmHg 93%

20 August, Thursday

Time Temperature Precipitation Wind Pressure Humidity
00:00 +25°C° 0.1 mm 3 mps 748 mmHg 94%
01:00 +25°C° 0.1 mm 3 mps 747 mmHg 94%
02:00 +24°C° 0.1 mm 3 mps 747 mmHg 94%
03:00 +24°C° 0.1 mm 3 mps 747 mmHg 93%
04:00 +24°C° 0.1 mm 3 mps 747 mmHg 93%
05:00 +24°C° 0.1 mm 3 mps 747 mmHg 92%
06:00 +25°C° 0 mm 3 mps 747 mmHg 89%
07:00 +26°C° 0 mm 3 mps 748 mmHg 87%
08:00 +26°C° 0 mm 3 mps 748 mmHg 85%
09:00 +28°C° 0 mm 4 mps 748 mmHg 77%
10:00 +30°C° 0 mm 4 mps 748 mmHg 69%
11:00 +32°C° 0 mm 5 mps 748 mmHg 61%
12:00 +32°C° 0.1 mm 5 mps 748 mmHg 62%
13:00 +32°C° 0.1 mm 5 mps 747 mmHg 63%
14:00 +32°C° 0.1 mm 5 mps 746 mmHg 64%
15:00 +30°C° 0.1 mm 5 mps 746 mmHg 67%
16:00 +29°C° 0.1 mm 4 mps 746 mmHg 70%
17:00 +29°C° 0.1 mm 4 mps 746 mmHg 73%
18:00 +28°C° 0.1 mm 4 mps 747 mmHg 80%
19:00 +27°C° 0.1 mm 4 mps 747 mmHg 87%
20:00 +25°C° 0.1 mm 3 mps 748 mmHg 94%
21:00 +25°C° 0.1 mm 3 mps 748 mmHg 94%
22:00 +25°C° 0.1 mm 3 mps 749 mmHg 94%
23:00 +25°C° 0.1 mm 3 mps 749 mmHg 95%
Show more